Current weather by "City, St" or "zip code"  
 

Current Conditions: Beaumont Municipal Airport, TX

Fair


81.0 F

Last Updated on Sep 18 2020, 10:50 am CDT
Humidity: 58%
Wind Speed: N 11.5 G 18.4 mph
Barometer 30.01 in
Dewpoint: 64.2 F
Visibility: 10.00 mi
Precip: --
Heat Index: 83 F
Wind Chill: NA
Current conditions at:

Beaumont Municipal Airport, TX (KBMT)

Lat: 30.0702 Lon: 94.2151

Local Radar Image active severe weather and emergency alerts image image weather storm and storm spotter reports image weather observation monitoring service image
Local
Radar
Active
Alerts
Storm Reports Obs
Monitoring

Sign-up For Email & Text Message Weather Alert Notification Services



Advertise Here

Observation History for Beaumont Municipal Airport, TX


Time Wind
(mph)
Vis
(mi)
Weather Precip (in) Temperature (F) Relative
Humidity
Wind
Chill
(F)
Heat
Index
(F)
Pressure
Air Dwpt altimeter
(in)
sea level
(mb)
Rmks
10:50 am CDT N 11.5 G 18.4 10.00 Fair -- 81.0 64.2 58% NA 83 30.01 M
9:50 am CDT NE 12.7 10.00 Fair -- 79.0 64.9 62% NA NA 30.00 M
8:50 am CDT N 9.2 10.00 Fair -- 76.0 67.3 74% NA NA 29.98 M
7:50 am CDT N 6.9 10.00 Fair -- 73.0 70.2 90% NA NA 29.96 M
6:50 am CDT N 5.8 10.00 Fair -- 74.0 71.1 90% NA NA 29.95 M
5:50 am CDT NE 5.8 10.00 Fair -- 75.0 71.2 88% NA NA 29.94 M
4:50 am CDT N 4.6 10.00 Fair -- 75.0 72.0 89% NA NA 29.94 M
4:30 am CDT N 5.8 10.00 Fair -- 76.0 71.8 88% NA NA 29.94 M
3:50 am CDT N 5.8 10.00 Partly Cloudy -- 76.0 72.1 88% NA NA 29.92 M
2:50 am CDT N 3.5 10.00 Fair -- 77.0 72.5 86% NA NA 29.94 M
2:30 am CDT N 4.6 10.00 Partly Cloudy -- 78.0 72.1 83% NA NA 29.94 M
1:50 am CDT N 5.8 10.00 Fair -- 78.0 72.0 82% NA NA 29.94 M
12:50 am CDT N 4.6 10.00 Partly Cloudy -- 77.0 72.7 86% NA NA 29.94 M
12:30 am CDT N 3.5 10.00 Partly Cloudy -- 78.0 72.7 84% NA NA 29.95 M
11:50 pm CDT N 3.5 10.00 Fair -- 79.0 72.7 82% NA NA 29.95 M
11:30 pm CDT NE 3.5 10.00 Fair -- 79.0 73.0 83% NA NA 29.94 M
10:50 pm CDT N 4.6 10.00 Fair -- 80.0 73.0 80% NA 84 29.94 M
10:30 pm CDT N 4.6 10.00 Fair -- 80.0 73.4 80% NA 84 29.94 M
9:50 pm CDT N 0.0 10.00 Partly Cloudy -- 80.0 73.4 81% NA 84 29.93 M
8:50 pm CDT N 4.6 10.00 Partly Cloudy -- 81.0 73.0 77% NA 86 29.92 M
7:50 pm CDT N 5.8 10.00 Partly Cloudy -- 82.0 73.2 75% NA 88 29.89 M
7:30 pm CDT N 5.8 10.00 Partly Cloudy -- 83.0 73.0 71% NA 89 29.88 M
6:50 pm CDT N 8.1 10.00 Fair -- 85.0 73.0 67% NA 92 29.87 M
6:30 pm CDT NE 10.4 10.00 Fair -- 86.0 73.2 65% NA 93 29.87 M

Regional Weather Observation


Jasper, Jasper County-Bell Field Airport, TX (KJAS)

Fair
80.0 F

Beaumont/Port Arthur Southeast Texas Regional Airport, TX (KBPT)

Fair
78.0 F

Orange, Orange County Airport, TX (KORG)

Fair
78.0 F

Cleveland, TX (K6R3)

Fair
80.0 F

Southland Field, LA (KUXL)

Heavy Rain and Windy
76.0 F

Conroe, Montgomery County Airport, TX (KCXO)

Fair
81.0 F